Location: Antioch Church
(34.9543°N, 88.5145°W)
Time: 11:31:35
(UTC+00:00)

Cosmos 1140 Rocket - Pass Details

Date: 11 December 2019
Orbit: 744 x 768 km, 74.1° (Epoch: 19 January)

Event Time Altitude Azimuth Distance (km) Brightness Sun altitude
Rises 00:20:00 0° 198° (SSW) 3,167 7.2 -19.4°
Reaches altitude 10° 00:22:21 10° 200° (SSW) 2,248 6.4 -19.8°
Maximum altitude 00:27:26 80° 287° (WNW) 759 3.5 -20.9°
Enters shadow 00:30:47 22° 13° (NNE) 1,587 4.9 -21.5°
